Time,TemperatureF,DewpointF,PressureIn,WindDirection,WindDirectionDegrees,WindSpeedMPH,WindSpeedGustMPH,Humidity,HourlyPrecipIn,Conditions,Clouds,dailyrainin,SoftwareType,DateUTC
2013-08-27 00:00:00,60.1,55.6,29.61,North,0,0.0,0.0,85,0.00,,,0.00,WUHU216HW,2013-08-27 07:00:00,
2013-08-27 00:05:00,60.1,55.6,29.61,North,0,0.0,0.0,85,0.00,,,0.00,WUHU216HW,2013-08-27 07:05:00,
2013-08-27 00:10:00,60.1,55.6,29.61,North,0,0.0,0.0,85,0.00,,,0.00,WUHU216HW,2013-08-27 07:10:00,
2013-08-27 00:30:00,59.8,55.3,29.62,North,0,0.0,0.0,85,0.00,,,0.00,WUHU216HW,2013-08-27 07:30:00,
2013-08-27 00:35:00,59.8,55.3,29.62,North,0,0.0,0.0,85,0.00,,,0.00,WUHU216HW,2013-08-27 07:35:00,
2013-08-27 01:00:00,59.8,55.6,29.61,North,0,0.0,0.0,86,0.00,,,0.00,WUHU216HW,2013-08-27 08:00:00,
2013-08-27 01:05:00,59.8,55.6,29.61,North,0,0.0,0.0,86,0.00,,,0.00,WUHU216HW,2013-08-27 08:05:00,
2013-08-27 01:09:00,59.8,55.6,29.61,North,0,0.0,0.0,86,0.00,,,0.00,WUHU216HW,2013-08-27 08:09:00,
2013-08-27 01:30:00,59.9,56.1,29.61,North,0,0.0,0.0,87,0.00,,,0.00,WUHU216HW,2013-08-27 08:30:00,
2013-08-27 01:35:00,59.9,56.1,29.61,North,0,0.0,0.0,87,0.00,,,0.00,WUHU216HW,2013-08-27 08:35:00,
2013-08-27 02:00:00,60.1,56.3,29.61,North,0,0.0,0.0,87,0.00,,,0.00,WUHU216HW,2013-08-27 09:00:00,
2013-08-27 02:04:00,60.1,56.3,29.61,North,0,0.0,0.0,87,0.00,,,0.00,WUHU216HW,2013-08-27 09:04:00,
2013-08-27 02:09:00,60.1,56.3,29.61,North,0,0.0,0.0,87,0.00,,,0.00,WUHU216HW,2013-08-27 09:09:00,
2013-08-27 02:30:00,60.1,56.3,29.60,North,0,0.0,0.0,87,0.00,,,0.00,WUHU216HW,2013-08-27 09:30:00,
2013-08-27 02:35:00,60.1,56.3,29.60,North,0,0.0,0.0,87,0.00,,,0.00,WUHU216HW,2013-08-27 09:35:00,
2013-08-27 03:00:00,59.9,56.1,29.60,North,0,0.0,0.0,87,0.00,,,0.00,WUHU216HW,2013-08-27 10:00:00,
2013-08-27 03:05:00,59.9,56.1,29.60,North,0,0.0,0.0,87,0.00,,,0.00,WUHU216HW,2013-08-27 10:05:00,
2013-08-27 03:09:00,59.9,56.1,29.60,North,0,0.0,0.0,87,0.00,,,0.00,WUHU216HW,2013-08-27 10:09:00,
2013-08-27 03:30:00,59.9,56.1,29.59,North,0,0.0,0.0,87,0.00,,,0.00,WUHU216HW,2013-08-27 10:30:00,
2013-08-27 03:35:00,59.9,56.1,29.59,North,0,0.0,0.0,87,0.00,,,0.00,WUHU216HW,2013-08-27 10:35:00,
2013-08-27 04:00:00,59.9,56.1,29.58,North,0,0.0,0.0,87,0.00,,,0.00,WUHU216HW,2013-08-27 11:00:00,
2013-08-27 04:04:00,59.9,56.1,29.58,North,0,0.0,0.0,87,0.00,,,0.00,WUHU216HW,2013-08-27 11:04:00,
2013-08-27 04:30:00,59.9,56.4,29.59,North,0,0.0,0.0,88,0.01,,,0.00,WUHU216HW,2013-08-27 11:30:00,
2013-08-27 04:35:00,59.9,56.4,29.59,North,0,0.0,0.0,88,0.01,,,0.00,WUHU216HW,2013-08-27 11:35:00,
2013-08-27 05:00:00,59.8,56.3,29.59,North,0,0.0,0.0,88,0.01,,,0.01,WUHU216HW,2013-08-27 12:00:00,
2013-08-27 05:04:00,59.8,56.3,29.59,North,0,0.0,0.0,88,0.01,,,0.01,WUHU216HW,2013-08-27 12:04:00,
2013-08-27 05:09:00,59.8,56.3,29.59,North,0,0.0,0.0,88,0.01,,,0.01,WUHU216HW,2013-08-27 12:09:00,
2013-08-27 05:30:00,59.9,56.4,29.58,North,0,0.0,0.0,88,0.00,,,0.01,WUHU216HW,2013-08-27 12:30:00,
2013-08-27 05:35:00,59.9,56.4,29.58,North,0,0.0,0.0,88,0.00,,,0.01,WUHU216HW,2013-08-27 12:35:00,
2013-08-27 06:00:00,59.9,56.7,29.58,North,0,0.0,0.0,89,0.00,,,0.01,WUHU216HW,2013-08-27 13:00:00,
2013-08-27 06:04:00,59.9,56.7,29.58,North,0,0.0,0.0,89,0.00,,,0.01,WUHU216HW,2013-08-27 13:04:00,
2013-08-27 06:30:00,59.8,56.5,29.57,North,0,0.0,0.0,89,0.00,,,0.01,WUHU216HW,2013-08-27 13:30:00,
2013-08-27 06:35:00,59.8,56.5,29.57,North,0,0.0,0.0,89,0.00,,,0.01,WUHU216HW,2013-08-27 13:35:00,
2013-08-27 07:00:00,59.9,56.7,29.58,North,0,0.0,0.0,89,0.00,,,0.01,WUHU216HW,2013-08-27 14:00:00,
2013-08-27 07:05:00,59.9,56.7,29.58,North,0,0.0,0.0,89,0.00,,,0.01,WUHU216HW,2013-08-27 14:05:00,
2013-08-27 07:30:00,60.1,56.9,29.59,North,0,0.0,0.0,89,0.00,,,0.01,WUHU216HW,2013-08-27 14:30:00,
2013-08-27 07:35:00,60.1,56.9,29.59,North,0,0.0,0.0,89,0.00,,,0.01,WUHU216HW,2013-08-27 14:35:00,
2013-08-27 08:00:00,61.0,57.8,29.58,North,0,0.0,0.0,89,0.00,,,0.01,WUHU216HW,2013-08-27 15:00:00,
2013-08-27 08:05:00,61.0,57.8,29.58,North,0,0.0,0.0,89,0.00,,,0.01,WUHU216HW,2013-08-27 15:05:00,
2013-08-27 08:30:00,62.3,59.0,29.59,North,0,0.0,0.0,89,0.00,,,0.01,WUHU216HW,2013-08-27 15:30:00,
2013-08-27 08:35:00,62.3,59.0,29.59,North,0,0.0,0.0,89,0.00,,,0.01,WUHU216HW,2013-08-27 15:35:00,
2013-08-27 08:59:00,63.5,59.9,29.59,North,0,0.0,0.0,88,0.00,,,0.01,WUHU216HW,2013-08-27 15:59:00,
2013-08-27 09:04:00,63.5,59.9,29.59,North,0,0.0,0.0,88,0.00,,,0.01,WUHU216HW,2013-08-27 16:04:00,
2013-08-27 09:09:00,63.5,59.9,29.59,North,0,0.0,0.0,88,0.00,,,0.01,WUHU216HW,2013-08-27 16:09:00,
2013-08-27 09:30:00,65.9,61.8,29.59,North,0,0.0,0.0,87,0.00,,,0.01,WUHU216HW,2013-08-27 16:30:00,
2013-08-27 09:35:00,65.9,61.8,29.59,North,0,0.0,0.0,87,0.00,,,0.01,WUHU216HW,2013-08-27 16:35:00,
2013-08-27 09:59:00,68.6,62.2,29.58,North,0,0.0,0.0,80,0.00,,,0.01,WUHU216HW,2013-08-27 16:59:00,
2013-08-27 10:04:00,68.6,62.2,29.58,North,0,0.0,0.0,80,0.00,,,0.01,WUHU216HW,2013-08-27 17:04:00,
2013-08-27 10:09:00,68.6,62.2,29.58,North,0,0.0,0.0,80,0.00,,,0.01,WUHU216HW,2013-08-27 17:09:00,
2013-08-27 10:30:00,70.9,63.3,29.58,North,0,0.0,0.0,77,0.00,,,0.01,WUHU216HW,2013-08-27 17:30:00,
2013-08-27 10:35:00,70.9,63.3,29.58,North,0,0.0,0.0,77,0.00,,,0.01,WUHU216HW,2013-08-27 17:35:00,
2013-08-27 11:00:00,71.6,62.9,29.58,North,0,0.0,0.0,74,0.00,,,0.01,WUHU216HW,2013-08-27 18:00:00,
2013-08-27 11:05:00,71.6,62.9,29.58,North,0,0.0,0.0,74,0.00,,,0.01,WUHU216HW,2013-08-27 18:05:00,
2013-08-27 11:30:00,72.7,62.5,29.57,North,0,0.0,0.0,70,0.00,,,0.01,WUHU216HW,2013-08-27 18:30:00,
2013-08-27 11:35:00,72.7,62.5,29.57,North,0,0.0,0.0,70,0.00,,,0.01,WUHU216HW,2013-08-27 18:35:00,
2013-08-27 11:59:00,73.1,61.9,29.55,North,0,0.0,0.0,68,0.00,,,0.01,WUHU216HW,2013-08-27 18:59:00,
2013-08-27 12:04:00,73.1,61.9,29.55,North,0,0.0,0.0,68,0.00,,,0.01,WUHU216HW,2013-08-27 19:04:00,
2013-08-27 12:09:00,73.1,61.9,29.55,North,0,0.0,0.0,68,0.00,,,0.01,WUHU216HW,2013-08-27 19:09:00,
2013-08-27 12:30:00,74.5,63.3,29.54,North,0,0.0,0.0,68,0.00,,,0.01,WUHU216HW,2013-08-27 19:30:00,
2013-08-27 12:35:00,74.5,63.3,29.54,North,0,0.0,0.0,68,0.00,,,0.01,WUHU216HW,2013-08-27 19:35:00,
2013-08-27 12:59:00,75.8,63.6,29.53,North,0,0.0,0.0,66,0.00,,,0.01,WUHU216HW,2013-08-27 19:59:00,
2013-08-27 13:04:00,75.8,63.6,29.53,North,0,0.0,0.0,66,0.00,,,0.01,WUHU216HW,2013-08-27 20:04:00,
2013-08-27 13:09:00,75.8,63.6,29.53,North,0,0.0,0.0,66,0.00,,,0.01,WUHU216HW,2013-08-27 20:09:00,
2013-08-27 13:30:00,76.7,62.2,29.51,North,0,0.0,0.0,61,0.00,,,0.01,WUHU216HW,2013-08-27 20:30:00,
2013-08-27 13:35:00,76.7,62.2,29.51,North,0,0.0,0.0,61,0.00,,,0.01,WUHU216HW,2013-08-27 20:35:00,
2013-08-27 13:59:00,78.1,63.2,29.51,North,0,0.0,0.0,60,0.00,,,0.01,WUHU216HW,2013-08-27 20:59:00,
2013-08-27 14:04:00,78.1,63.2,29.51,North,0,0.0,0.0,60,0.00,,,0.01,WUHU216HW,2013-08-27 21:04:00,
2013-08-27 14:30:00,79.7,62.7,29.50,North,0,0.0,0.0,56,0.00,,,0.01,WUHU216HW,2013-08-27 21:30:00,
2013-08-27 14:35:00,79.7,62.7,29.50,North,0,0.0,0.0,56,0.00,,,0.01,WUHU216HW,2013-08-27 21:35:00,
2013-08-27 14:59:00,79.4,62.8,29.49,North,0,0.0,0.0,57,0.00,,,0.01,WUHU216HW,2013-08-27 21:59:00,
2013-08-27 15:04:00,79.4,62.8,29.49,North,0,0.0,0.0,57,0.00,,,0.01,WUHU216HW,2013-08-27 22:04:00,
2013-08-27 15:30:00,79.2,61.7,29.49,North,0,0.0,0.0,55,0.00,,,0.01,WUHU216HW,2013-08-27 22:30:00,
2013-08-27 15:35:00,79.2,61.7,29.49,North,0,0.0,0.0,55,0.00,,,0.01,WUHU216HW,2013-08-27 22:35:00,
2013-08-27 15:59:00,77.8,60.3,29.48,North,0,0.0,0.0,55,0.00,,,0.01,WUHU216HW,2013-08-27 22:59:00,
2013-08-27 16:04:00,77.8,60.3,29.48,North,0,0.0,0.0,55,0.00,,,0.01,WUHU216HW,2013-08-27 23:04:00,
2013-08-27 16:30:00,77.2,60.8,29.48,North,0,0.0,0.0,57,0.00,,,0.01,WUHU216HW,2013-08-27 23:30:00,
2013-08-27 16:35:00,77.2,60.8,29.48,North,0,0.0,0.0,57,0.00,,,0.01,WUHU216HW,2013-08-27 23:35:00,
2013-08-27 17:00:00,76.5,60.6,29.48,North,0,0.0,0.0,58,0.00,,,0.01,WUHU216HW,2013-08-28 00:00:00,
2013-08-27 17:04:00,76.5,60.6,29.48,North,0,0.0,0.0,58,0.00,,,0.01,WUHU216HW,2013-08-28 00:04:00,
2013-08-27 17:30:00,76.1,61.3,29.47,North,0,0.0,0.0,60,0.00,,,0.01,WUHU216HW,2013-08-28 00:30:00,
2013-08-27 17:35:00,76.1,61.3,29.47,North,0,0.0,0.0,60,0.00,,,0.01,WUHU216HW,2013-08-28 00:35:00,
2013-08-27 18:00:00,76.0,60.1,29.46,North,0,0.0,0.0,58,0.00,,,0.01,WUHU216HW,2013-08-28 01:00:00,
2013-08-27 18:05:00,76.0,60.1,29.46,North,0,0.0,0.0,58,0.00,,,0.01,WUHU216HW,2013-08-28 01:05:00,
2013-08-27 18:30:00,75.1,61.2,29.47,North,0,0.0,0.0,62,0.00,,,0.01,WUHU216HW,2013-08-28 01:30:00,
2013-08-27 18:35:00,75.1,61.2,29.47,North,0,0.0,0.0,62,0.00,,,0.01,WUHU216HW,2013-08-28 01:35:00,
2013-08-27 19:00:00,74.0,61.5,29.46,North,0,0.0,0.0,65,0.00,,,0.01,WUHU216HW,2013-08-28 02:00:00,
2013-08-27 19:05:00,74.0,61.5,29.46,North,0,0.0,0.0,65,0.00,,,0.01,WUHU216HW,2013-08-28 02:05:00,
2013-08-27 19:30:00,73.1,61.9,29.46,North,0,0.0,0.0,68,0.00,,,0.01,WUHU216HW,2013-08-28 02:30:00,
2013-08-27 19:35:00,73.1,61.9,29.46,North,0,0.0,0.0,68,0.00,,,0.01,WUHU216HW,2013-08-28 02:35:00,
2013-08-27 19:59:00,71.6,61.4,29.46,North,0,0.0,0.0,70,0.00,,,0.01,WUHU216HW,2013-08-28 02:59:00,
2013-08-27 20:04:00,71.6,61.4,29.46,North,0,0.0,0.0,70,0.00,,,0.01,WUHU216HW,2013-08-28 03:04:00,
2013-08-27 20:30:00,69.8,60.3,29.46,North,0,0.0,0.0,72,0.00,,,0.01,WUHU216HW,2013-08-28 03:30:00,
2013-08-27 20:35:00,69.8,60.3,29.46,North,0,0.0,0.0,72,0.00,,,0.01,WUHU216HW,2013-08-28 03:35:00,
2013-08-27 20:59:00,69.1,59.7,29.48,North,0,0.0,0.0,72,0.00,,,0.01,WUHU216HW,2013-08-28 03:59:00,
2013-08-27 21:01:00,69.1,59.7,29.48,North,0,0.0,0.0,72,0.00,,,0.01,WUHU216HW,2013-08-28 04:01:00,
2013-08-27 21:06:00,69.1,59.7,29.48,North,0,0.0,0.0,72,0.00,,,0.01,WUHU216HW,2013-08-28 04:06:00,
2013-08-27 21:30:00,68.0,59.1,29.48,North,0,0.0,0.0,73,0.00,,,0.01,WUHU216HW,2013-08-28 04:30:00,
2013-08-27 21:35:00,68.0,59.1,29.48,North,0,0.0,0.0,73,0.00,,,0.01,WUHU216HW,2013-08-28 04:35:00,
2013-08-27 21:59:00,67.1,58.6,29.49,North,0,0.0,0.0,74,0.00,,,0.01,WUHU216HW,2013-08-28 04:59:00,
2013-08-27 22:04:00,67.1,58.6,29.49,North,0,0.0,0.0,74,0.00,,,0.01,WUHU216HW,2013-08-28 05:04:00,
2013-08-27 22:09:00,67.1,58.6,29.49,North,0,0.0,0.0,74,0.00,,,0.01,WUHU216HW,2013-08-28 05:09:00,
2013-08-27 22:30:00,65.9,57.3,29.50,North,0,0.0,0.0,74,0.00,,,0.01,WUHU216HW,2013-08-28 05:30:00,
2013-08-27 22:35:00,65.9,57.3,29.50,North,0,0.0,0.0,74,0.00,,,0.01,WUHU216HW,2013-08-28 05:35:00,
2013-08-27 22:59:00,65.2,56.7,29.50,North,0,0.0,0.0,74,0.00,,,0.01,WUHU216HW,2013-08-28 05:59:00,
2013-08-27 23:04:00,65.2,56.7,29.50,North,0,0.0,0.0,74,0.00,,,0.01,WUHU216HW,2013-08-28 06:04:00,
2013-08-27 23:09:00,65.2,56.7,29.50,North,0,0.0,0.0,74,0.00,,,0.01,WUHU216HW,2013-08-28 06:09:00,
2013-08-27 23:30:00,64.6,56.9,29.50,North,0,0.0,0.0,76,0.00,,,0.01,WUHU216HW,2013-08-28 06:30:00,
2013-08-27 23:35:00,64.6,56.9,29.50,North,0,0.0,0.0,76,0.00,,,0.01,WUHU216HW,2013-08-28 06:35:00,
2013-08-27 23:59:00,63.7,56.7,29.50,North,0,0.0,0.0,78,0.00,,,0.00,WUHU216HW,2013-08-28 06:59:00,